TimeEST,TemperatureF,Dew PointF,Humidity,Sea Level PressureIn,VisibilityMPH,Wind Direction,Wind SpeedMPH,Gust SpeedMPH,PrecipitationIn,Events,Conditions,WindDirDegrees,DateUTC
12:03 AM,48.2,48.2,100,29.98,9.0,Calm,Calm,-,N/A,,Overcast,0,2012-12-10 05:03:00
12:12 AM,48.2,48.2,100,29.97,8.0,Calm,Calm,-,N/A,,Overcast,0,2012-12-10 05:12:00
12:20 AM,48.2,48.2,100,29.97,5.0,Calm,Calm,-,N/A,,Overcast,0,2012-12-10 05:20:00
12:27 AM,48.2,48.2,100,29.96,4.0,Calm,Calm,-,N/A,,Overcast,0,2012-12-10 05:27:00
12:32 AM,48.2,48.2,100,29.96,3.0,Calm,Calm,-,N/A,,Overcast,0,2012-12-10 05:32:00
12:37 AM,48.2,48.2,100,29.96,2.5,NW,3.5,-,N/A,,Overcast,310,2012-12-10 05:37:00
12:38 AM,48.2,48.2,100,29.96,2.5,NW,3.5,-,N/A,,Overcast,310,2012-12-10 05:38:00
12:52 AM,48.2,48.2,100,29.95,1.8,Calm,Calm,-,N/A,,Overcast,0,2012-12-10 05:52:00
12:55 AM,48.0,47.8,99,29.95,1.5,Calm,Calm,-,N/A,,Overcast,0,2012-12-10 05:55:00
12:58 AM,48.2,48.2,100,29.94,1.2,Calm,Calm,-,N/A,,Overcast,0,2012-12-10 05:58:00
1:02 AM,48.2,48.2,100,29.94,1.0,Calm,Calm,-,N/A,,Overcast,0,2012-12-10 06:02:00
1:07 AM,48.2,48.2,100,29.94,1.0,Calm,Calm,-,N/A,,Overcast,0,2012-12-10 06:07:00
1:09 AM,48.2,48.2,100,29.94,0.8,Calm,Calm,-,N/A,,Overcast,0,2012-12-10 06:09:00
1:14 AM,48.2,48.2,100,29.94,0.8,Calm,Calm,-,N/A,,Overcast,0,2012-12-10 06:14:00
1:25 AM,48.2,48.2,100,29.94,0.5,Calm,Calm,-,N/A,Fog,Fog,0,2012-12-10 06:25:00
1:28 AM,48.2,48.2,100,29.93,0.5,Calm,Calm,-,N/A,Fog-Rain,Light Rain,0,2012-12-10 06:28:00
1:37 AM,48.2,48.2,100,29.93,0.5,Calm,Calm,-,N/A,Fog,Fog,0,2012-12-10 06:37:00
1:55 AM,47.8,47.7,99,29.93,0.5,Calm,Calm,-,0.00,Fog,Fog,0,2012-12-10 06:55:00
1:58 AM,48.2,48.2,100,29.92,0.5,Calm,Calm,-,N/A,Fog-Rain,Heavy Rain,0,2012-12-10 06:58:00
2:05 AM,48.2,48.2,100,29.92,0.5,Calm,Calm,-,N/A,Fog-Rain,Light Rain,0,2012-12-10 07:05:00
2:08 AM,48.2,48.2,100,29.92,0.8,Calm,Calm,-,N/A,Rain,Light Rain,0,2012-12-10 07:08:00
2:09 AM,48.2,48.2,100,29.91,0.8,Calm,Calm,-,N/A,Rain,Light Rain,0,2012-12-10 07:09:00
2:11 AM,48.2,48.2,100,29.92,1.0,Calm,Calm,-,N/A,Rain,Light Rain,0,2012-12-10 07:11:00
2:17 AM,48.2,48.2,100,29.91,1.2,Calm,Calm,-,N/A,Rain,Light Rain,0,2012-12-10 07:17:00
2:19 AM,48.2,48.2,100,29.91,1.2,Calm,Calm,-,N/A,Rain,Light Rain,0,2012-12-10 07:19:00
2:20 AM,48.2,48.2,100,29.91,1.5,Calm,Calm,-,N/A,Rain,Light Rain,0,2012-12-10 07:20:00
2:22 AM,48.2,48.2,100,29.91,2.0,Calm,Calm,-,N/A,Rain,Light Rain,0,2012-12-10 07:22:00
2:25 AM,48.2,48.2,100,29.91,3.0,Calm,Calm,-,N/A,Rain,Light Rain,0,2012-12-10 07:25:00
2:27 AM,48.2,48.2,100,29.91,3.0,Calm,Calm,-,N/A,,Overcast,0,2012-12-10 07:27:00
2:28 AM,48.2,48.2,100,29.91,4.0,Calm,Calm,-,N/A,,Overcast,0,2012-12-10 07:28:00
2:37 AM,48.2,48.2,100,29.91,4.0,Calm,Calm,-,N/A,,Overcast,0,2012-12-10 07:37:00
2:41 AM,48.2,48.2,100,29.90,3.0,Calm,Calm,-,N/A,,Overcast,0,2012-12-10 07:41:00
2:43 AM,48.2,48.2,100,29.90,2.5,Calm,Calm,-,N/A,,Overcast,0,2012-12-10 07:43:00
2:48 AM,48.2,48.2,100,29.90,2.0,Calm,Calm,-,N/A,,Overcast,0,2012-12-10 07:48:00
2:55 AM,48.6,48.4,99,29.90,2.0,Calm,Calm,-,0.14,,Overcast,0,2012-12-10 07:55:00
3:00 AM,48.2,48.2,100,29.90,2.0,Calm,Calm,-,N/A,Rain,Light Rain,0,2012-12-10 08:00:00
3:01 AM,48.2,48.2,100,29.89,1.8,Calm,Calm,-,N/A,Rain,Light Rain,0,2012-12-10 08:01:00
3:14 AM,48.2,48.2,100,29.89,1.5,Calm,Calm,-,N/A,Rain,Light Rain,0,2012-12-10 08:14:00
3:16 AM,48.2,48.2,100,29.89,1.5,Calm,Calm,-,N/A,,Overcast,0,2012-12-10 08:16:00
3:33 AM,48.2,48.2,100,29.88,1.5,SSE,4.6,-,N/A,,Overcast,150,2012-12-10 08:33:00
3:34 AM,48.2,48.2,100,29.88,1.8,SSE,4.6,-,N/A,,Overcast,160,2012-12-10 08:34:00
3:35 AM,50.0,48.2,94,29.88,1.8,SSE,3.5,-,N/A,,Overcast,160,2012-12-10 08:35:00
3:36 AM,50.0,48.2,94,29.88,2.0,SSE,4.6,-,N/A,,Overcast,160,2012-12-10 08:36:00
3:37 AM,50.0,48.2,94,29.88,2.5,SSE,4.6,-,N/A,,Overcast,150,2012-12-10 08:37:00
3:39 AM,50.0,50.0,100,29.88,3.0,SSE,4.6,-,N/A,,Overcast,160,2012-12-10 08:39:00
3:41 AM,50.0,50.0,100,29.88,5.0,South,3.5,-,N/A,,Overcast,170,2012-12-10 08:41:00
3:55 AM,50.7,50.4,99,29.87,10.0,South,5.8,-,0.00,,Overcast,180,2012-12-10 08:55:00
4:13 AM,51.8,51.8,100,29.86,10.0,South,8.1,-,N/A,,Overcast,190,2012-12-10 09:13:00
4:24 AM,51.8,51.8,100,29.86,10.0,South,6.9,-,N/A,,Overcast,190,2012-12-10 09:24:00
4:31 AM,51.8,51.8,100,29.85,9.0,South,6.9,-,N/A,,Overcast,190,2012-12-10 09:31:00
4:55 AM,52.3,52.0,99,29.85,7.0,South,6.9,-,N/A,,Overcast,190,2012-12-10 09:55:00
5:00 AM,51.8,51.8,100,29.85,6.0,South,8.1,-,N/A,,Overcast,190,2012-12-10 10:00:00
5:08 AM,51.8,51.8,100,29.84,4.0,South,5.8,-,N/A,,Overcast,190,2012-12-10 10:08:00
5:14 AM,53.6,51.8,94,29.84,4.0,South,5.8,-,N/A,,Overcast,190,2012-12-10 10:14:00
5:29 AM,53.6,51.8,94,29.83,3.0,South,5.8,-,N/A,,Overcast,190,2012-12-10 10:29:00
5:42 AM,53.6,53.6,100,29.83,3.0,South,8.1,-,N/A,,Overcast,190,2012-12-10 10:42:00
5:54 AM,53.6,53.6,100,29.83,5.0,South,8.1,-,N/A,,Overcast,190,2012-12-10 10:54:00
5:55 AM,54.1,53.8,99,29.83,5.0,South,8.1,-,N/A,,Overcast,190,2012-12-10 10:55:00
6:08 AM,55.4,55.4,100,29.82,3.0,South,8.1,-,N/A,,Overcast,190,2012-12-10 11:08:00
6:12 AM,55.4,55.4,100,29.82,3.0,South,8.1,-,N/A,,Overcast,190,2012-12-10 11:12:00
6:39 AM,55.4,55.4,100,29.81,2.5,South,9.2,-,N/A,,Overcast,190,2012-12-10 11:39:00
6:42 AM,55.4,55.4,100,29.81,2.5,South,10.4,-,N/A,,Overcast,190,2012-12-10 11:42:00
6:54 AM,55.4,55.4,100,29.81,2.5,South,10.4,-,N/A,,Overcast,190,2012-12-10 11:54:00
6:55 AM,56.1,55.9,99,29.81,2.5,South,10.4,-,N/A,,Overcast,190,2012-12-10 11:55:00
6:57 AM,55.4,55.4,100,29.81,3.0,South,9.2,-,N/A,,Overcast,190,2012-12-10 11:57:00
7:08 AM,57.2,57.2,100,29.80,3.0,South,12.7,-,N/A,,Overcast,190,2012-12-10 12:08:00
7:11 AM,57.2,57.2,100,29.80,3.0,South,10.4,-,N/A,,Overcast,190,2012-12-10 12:11:00
7:21 AM,57.2,57.2,100,29.80,2.5,SSW,11.5,-,N/A,,Overcast,210,2012-12-10 12:21:00
7:55 AM,58.1,57.7,99,29.79,2.0,SSW,12.7,-,N/A,,Overcast,210,2012-12-10 12:55:00
8:12 AM,57.2,57.2,100,29.79,1.8,SSW,10.4,-,N/A,,Overcast,210,2012-12-10 13:12:00
8:19 AM,59.0,57.2,94,29.79,1.5,SW,11.5,-,N/A,,Overcast,220,2012-12-10 13:19:00
8:50 AM,57.2,57.2,100,29.78,1.8,SSW,10.4,-,N/A,,Overcast,210,2012-12-10 13:50:00
8:55 AM,57.9,57.9,100,29.78,1.8,SW,8.1,-,N/A,,Overcast,220,2012-12-10 13:55:00
8:59 AM,57.2,57.2,100,29.78,1.5,SW,8.1,-,N/A,,Overcast,220,2012-12-10 13:59:00
9:11 AM,57.2,57.2,100,29.78,1.2,SSW,6.9,-,N/A,,Overcast,210,2012-12-10 14:11:00
9:23 AM,59.0,59.0,100,29.77,1.2,South,4.6,-,N/A,,Overcast,190,2012-12-10 14:23:00
9:24 AM,59.0,59.0,100,29.77,1.5,SSW,4.6,-,N/A,,Overcast,200,2012-12-10 14:24:00
9:38 AM,59.0,59.0,100,29.78,1.8,SW,8.1,-,N/A,,Mostly Cloudy,220,2012-12-10 14:38:00
9:43 AM,59.0,59.0,100,29.77,1.5,SW,8.1,-,N/A,,Mostly Cloudy,220,2012-12-10 14:43:00
9:45 AM,59.0,59.0,100,29.77,1.5,SW,8.1,-,N/A,,Scattered Clouds,230,2012-12-10 14:45:00
9:47 AM,59.0,59.0,100,29.77,1.2,SW,8.1,-,N/A,,Scattered Clouds,230,2012-12-10 14:47:00
9:55 AM,58.3,58.3,100,29.77,1.2,WSW,6.9,-,N/A,,Scattered Clouds,250,2012-12-10 14:55:00
9:59 AM,59.0,59.0,100,29.78,1.0,WSW,6.9,-,N/A,,Mist,250,2012-12-10 14:59:00
10:04 AM,59.0,59.0,100,29.77,1.0,SW,5.8,-,N/A,,Mist,230,2012-12-10 15:04:00
10:07 AM,59.0,59.0,100,29.77,0.8,SW,5.8,-,N/A,,Mist,230,2012-12-10 15:07:00
10:08 AM,59.0,59.0,100,29.77,0.8,SW,5.8,-,N/A,Rain,Light Rain,230,2012-12-10 15:08:00
10:09 AM,59.0,59.0,100,29.77,0.8,SW,6.9,-,N/A,Rain,Light Rain,230,2012-12-10 15:09:00
10:16 AM,59.0,59.0,100,29.76,0.8,SSW,5.8,-,N/A,Rain,Light Rain,210,2012-12-10 15:16:00
10:17 AM,59.0,59.0,100,29.76,0.8,SSW,5.8,-,N/A,Rain,Light Rain,200,2012-12-10 15:17:00
10:18 AM,59.0,59.0,100,29.76,1.0,SSW,6.9,-,N/A,Rain,Light Rain,200,2012-12-10 15:18:00
10:22 AM,59.0,59.0,100,29.75,1.2,SSW,6.9,-,N/A,Rain,Light Rain,200,2012-12-10 15:22:00
10:25 AM,59.0,59.0,100,29.75,1.5,South,5.8,-,N/A,Rain,Light Rain,190,2012-12-10 15:25:00
10:27 AM,59.0,59.0,100,29.75,1.8,South,5.8,-,N/A,Rain,Light Rain,190,2012-12-10 15:27:00
10:30 AM,59.0,59.0,100,29.75,1.8,SSW,5.8,-,N/A,,Clear,200,2012-12-10 15:30:00
10:32 AM,59.0,59.0,100,29.74,2.0,SSW,6.9,-,N/A,,Clear,210,2012-12-10 15:32:00
10:45 AM,59.0,59.0,100,29.73,3.0,SSW,6.9,-,N/A,,Clear,210,2012-12-10 15:45:00
10:55 AM,59.9,59.7,99,29.72,4.0,South,10.4,-,0.02,,Clear,190,2012-12-10 15:55:00
11:30 AM,60.8,60.8,100,29.71,2.5,SW,10.4,-,N/A,,Clear,230,2012-12-10 16:30:00
11:55 AM,60.8,60.8,100,29.70,2.0,WSW,10.4,-,N/A,,Mostly Cloudy,240,2012-12-10 16:55:00
12:45 PM,60.8,60.8,100,29.66,3.0,SW,10.4,-,N/A,,Overcast,230,2012-12-10 17:45:00
12:55 PM,61.7,61.7,100,29.65,5.0,WSW,12.7,-,N/A,,Overcast,240,2012-12-10 17:55:00
1:00 PM,62.6,62.6,100,29.65,5.0,WSW,12.7,-,N/A,,Overcast,240,2012-12-10 18:00:00
1:55 PM,62.1,62.1,100,29.62,4.0,WSW,11.5,-,N/A,,Overcast,240,2012-12-10 18:55:00
2:49 PM,62.6,62.6,100,29.61,5.0,WSW,9.2,-,N/A,,Mostly Cloudy,250,2012-12-10 19:49:00
2:55 PM,62.1,62.1,100,29.61,8.0,WSW,6.9,-,N/A,,Mostly Cloudy,250,2012-12-10 19:55:00
2:58 PM,62.6,62.6,100,29.61,8.0,WSW,6.9,-,N/A,,Mostly Cloudy,250,2012-12-10 19:58:00
3:07 PM,62.6,62.6,100,29.60,8.0,SW,8.1,-,N/A,,Mostly Cloudy,230,2012-12-10 20:07:00
3:34 PM,62.6,62.6,100,29.59,10.0,SW,9.2,-,N/A,,Mostly Cloudy,230,2012-12-10 20:34:00
3:35 PM,62.6,62.6,100,29.59,10.0,SW,8.1,-,N/A,,Mostly Cloudy,230,2012-12-10 20:35:00
3:37 PM,62.6,62.6,100,29.59,10.0,SW,8.1,-,N/A,,Scattered Clouds,220,2012-12-10 20:37:00
3:55 PM,61.7,61.7,100,29.59,10.0,SW,8.1,-,N/A,,Scattered Clouds,230,2012-12-10 20:55:00
4:12 PM,60.8,60.8,100,29.57,10.0,SW,5.8,-,N/A,,Partly Cloudy,230,2012-12-10 21:12:00
4:44 PM,60.8,59.0,94,29.57,5.0,WSW,4.6,-,N/A,,Mostly Cloudy,250,2012-12-10 21:44:00
4:51 PM,60.8,60.8,100,29.57,5.0,SW,4.6,-,N/A,,Mostly Cloudy,230,2012-12-10 21:51:00
4:55 PM,60.4,60.1,99,29.58,5.0,West,3.5,-,N/A,,Mostly Cloudy,260,2012-12-10 21:55:00
5:00 PM,60.8,60.8,100,29.57,6.0,WSW,4.6,-,N/A,,Overcast,250,2012-12-10 22:00:00
5:08 PM,60.8,60.8,100,29.57,6.0,WSW,5.8,-,N/A,,Overcast,240,2012-12-10 22:08:00
5:11 PM,60.8,60.8,100,29.57,6.0,WSW,5.8,-,N/A,,Overcast,250,2012-12-10 22:11:00
5:13 PM,60.8,60.8,100,29.57,6.0,WSW,4.6,-,N/A,,Overcast,240,2012-12-10 22:13:00
5:23 PM,60.8,60.8,100,29.57,5.0,West,4.6,-,N/A,,Overcast,270,2012-12-10 22:23:00
5:24 PM,60.8,60.8,100,29.57,5.0,West,4.6,-,N/A,,Overcast,280,2012-12-10 22:24:00
5:34 PM,60.8,60.8,100,29.58,7.0,WNW,3.5,-,N/A,,Overcast,290,2012-12-10 22:34:00
5:38 PM,60.8,60.8,100,29.57,5.0,WNW,4.6,-,N/A,Rain,Light Rain,290,2012-12-10 22:38:00
5:44 PM,60.8,60.8,100,29.57,4.0,WNW,4.6,-,N/A,Rain,Light Rain,300,2012-12-10 22:44:00
5:46 PM,60.8,60.8,100,29.57,3.0,NW,6.9,-,N/A,Rain,Light Rain,310,2012-12-10 22:46:00
5:47 PM,60.8,60.8,100,29.57,3.0,NW,6.9,-,N/A,Rain,Light Rain,310,2012-12-10 22:47:00
5:51 PM,60.8,60.8,100,29.57,3.0,NW,4.6,-,N/A,,Mostly Cloudy,310,2012-12-10 22:51:00
5:52 PM,60.8,60.8,100,29.57,3.0,WNW,4.6,-,N/A,,Mostly Cloudy,300,2012-12-10 22:52:00
5:55 PM,60.3,59.9,99,29.57,4.0,WNW,6.9,-,0.00,,Mostly Cloudy,300,2012-12-10 22:55:00
5:58 PM,60.8,59.0,94,29.57,4.0,Variable,3.5,-,N/A,Rain,Light Rain,0,2012-12-10 22:58:00
6:05 PM,60.8,59.0,94,29.57,5.0,West,8.1,-,N/A,Rain,Light Rain,260,2012-12-10 23:05:00
6:06 PM,60.8,59.0,94,29.57,5.0,West,8.1,-,N/A,Rain,Light Rain,260,2012-12-10 23:06:00
6:10 PM,60.8,59.0,94,29.57,6.0,West,10.4,-,N/A,Rain,Light Rain,270,2012-12-10 23:10:00
6:12 PM,60.8,59.0,94,29.57,8.0,West,11.5,-,N/A,Rain,Light Rain,270,2012-12-10 23:12:00
6:17 PM,60.8,59.0,94,29.57,10.0,West,9.2,-,N/A,,Mostly Cloudy,260,2012-12-10 23:17:00
6:19 PM,60.8,59.0,94,29.57,10.0,West,10.4,-,N/A,Rain,Light Rain,260,2012-12-10 23:19:00
6:33 PM,60.8,59.0,94,29.57,9.0,WSW,9.2,-,N/A,,Mostly Cloudy,250,2012-12-10 23:33:00
6:55 PM,59.7,59.5,99,29.57,9.0,WSW,9.2,-,0.01,,Overcast,250,2012-12-10 23:55:00
7:00 PM,59.0,59.0,100,29.57,9.0,West,8.1,-,N/A,,Overcast,260,2012-12-11 00:00:00
7:32 PM,59.0,59.0,100,29.57,7.0,WSW,8.1,-,N/A,,Mostly Cloudy,250,2012-12-11 00:32:00
7:55 PM,59.5,59.2,99,29.57,7.0,WSW,6.9,-,N/A,,Mostly Cloudy,240,2012-12-11 00:55:00
8:10 PM,59.0,59.0,100,29.57,9.0,SW,9.2,-,N/A,,Mostly Cloudy,230,2012-12-11 01:10:00
8:45 PM,59.0,59.0,100,29.57,10.0,WNW,5.8,-,N/A,,Mostly Cloudy,290,2012-12-11 01:45:00
8:54 PM,59.0,59.0,100,29.57,9.0,WNW,4.6,-,N/A,,Overcast,290,2012-12-11 01:54:00
8:55 PM,59.4,59.0,99,29.57,9.0,WNW,5.8,-,N/A,,Overcast,290,2012-12-11 01:55:00
9:04 PM,59.0,59.0,100,29.57,8.0,WNW,6.9,-,N/A,,Overcast,290,2012-12-11 02:04:00
9:07 PM,59.0,59.0,100,29.57,8.0,WNW,5.8,-,N/A,,Overcast,290,2012-12-11 02:07:00
9:17 PM,59.0,59.0,100,29.57,6.0,West,5.8,-,N/A,,Overcast,280,2012-12-11 02:17:00
9:51 PM,59.0,59.0,100,29.57,6.0,WSW,8.1,-,N/A,,Overcast,250,2012-12-11 02:51:00
9:52 PM,59.0,59.0,100,29.57,6.0,WSW,8.1,-,N/A,,Overcast,250,2012-12-11 02:52:00
9:55 PM,59.9,59.5,99,29.57,6.0,WSW,9.2,-,N/A,,Overcast,250,2012-12-11 02:55:00
9:56 PM,59.0,59.0,100,29.57,6.0,WSW,8.1,-,N/A,,Overcast,250,2012-12-11 02:56:00
9:58 PM,60.8,59.0,94,29.57,7.0,WSW,8.1,-,N/A,,Overcast,250,2012-12-11 02:58:00
10:03 PM,60.8,59.0,94,29.56,8.0,West,8.1,-,N/A,,Mostly Cloudy,260,2012-12-11 03:03:00
10:08 PM,60.8,59.0,94,29.57,8.0,WSW,6.9,-,N/A,,Mostly Cloudy,250,2012-12-11 03:08:00
10:13 PM,60.8,59.0,94,29.57,8.0,WSW,6.9,-,N/A,,Mostly Cloudy,250,2012-12-11 03:13:00
10:15 PM,60.8,59.0,94,29.57,7.0,WSW,8.1,-,N/A,,Mostly Cloudy,250,2012-12-11 03:15:00
10:17 PM,60.8,59.0,94,29.57,7.0,WSW,9.2,-,N/A,,Mostly Cloudy,250,2012-12-11 03:17:00
10:18 PM,60.8,59.0,94,29.57,7.0,WSW,9.2,-,N/A,,Mostly Cloudy,250,2012-12-11 03:18:00
10:21 PM,60.8,59.0,94,29.57,8.0,WSW,8.1,-,N/A,,Mostly Cloudy,250,2012-12-11 03:21:00
10:27 PM,60.8,59.0,94,29.57,9.0,WSW,9.2,-,N/A,,Mostly Cloudy,250,2012-12-11 03:27:00
10:47 PM,60.8,59.0,94,29.57,8.0,WSW,6.9,-,N/A,,Mostly Cloudy,250,2012-12-11 03:47:00
10:52 PM,60.8,60.8,100,29.57,7.0,WSW,6.9,-,N/A,,Overcast,250,2012-12-11 03:52:00
10:55 PM,60.3,59.9,99,29.57,7.0,WSW,6.9,-,N/A,,Overcast,250,2012-12-11 03:55:00
11:22 PM,60.8,59.0,94,29.57,9.0,WSW,8.1,-,N/A,,Mostly Cloudy,240,2012-12-11 04:22:00
11:25 PM,60.8,59.0,94,29.57,9.0,SW,9.2,-,N/A,,Mostly Cloudy,230,2012-12-11 04:25:00
11:42 PM,59.0,59.0,100,29.57,10.0,WSW,9.2,-,N/A,,Mostly Cloudy,240,2012-12-11 04:42:00
11:55 PM,59.7,59.5,99,29.57,10.0,WSW,9.2,-,N/A,,Mostly Cloudy,240,2012-12-11 04:55:00